Weather History for Sherman-Denison, TX

Change the Weather History Date:

Tuesday, January 8, 2013

  Actual Average (KDFW) Record (KDFW)
Temperature  
Mean Temperature 44 °F 46 °F  
Max Temperature 46 °F 56 °F 88 °F (1969)
Min Temperature 41 °F 35 °F 11 °F (1976)
Degree Days  
Heating Degree Days 22 20  
Month to date heating degree days 160  
Since 1 July heating degree days 1072  
Cooling Degree Days 0 0  
Month to date cooling degree days 0  
Year to date cooling degree days 0  
Moisture  
Dew Point 38 °F    
Average Humidity 82    
Maximum Humidity 100    
Minimum Humidity 61    
Precipitation  
Precipitation 1.00 in 0.07 in 1.95 in (2013)
Month to date precipitation 0.51  
Year to date precipitation 0.51  
Snow  
Snow 0.00 in 0.10 in 3.20 in (1937)
Month to date snowfall 0.1  
Since 1 July snowfall 0.4  
Snow Depth -    
Sea Level Pressure  
Sea Level Pressure 30.08 in    
Wind  
Wind Speed 6 mph (ENE)    
Max Wind Speed 18 mph    
Max Gust Speed -    
Visibility 7 miles    
Events Rain , Thunderstorm    
T = Trace of Precipitation, MM = Missing Value Source: NWS Daily Summary

Daily Weather History Graph

Daily Weather History Graph

Search for Another Location

Airport:

Trip Planner

Search our weather history database for the weather conditions in past years. The results will help you decide how hot, cold, wet, or windy it might be!

Date:

Astronomy

Jan. 08, 2013 Rise Set
Actual Time 7:32 AM CST 5:35 PM CST
Civil Twilight 7:04 AM CST 6:02 PM CST
Nautical Twilight 6:33 AM CST 6:33 PM CST
Astronomical Twilight 6:03 AM CST 7:03 PM CST
Moon 4:07 AM CST (1/8) 2:38 PM CST (1/8)
Length of Visible Light 10h 57m
Length of Day
10h 03m
Waning Crescent, 13% of the Moon is Illuminated
Jan 8
Waning Crescent
Jan 11
New
Jan 18
First Quarter
Jan 26
Full
Feb 3
Last Quarter

Hourly Weather History & Observations

Time (CST) Temp. Windchill Dew Point Humidity Pressure Visibility Wind Dir Wind Speed Gust Speed Precip Events Conditions
12:15 AM 41.0 °F 37.1 °F 30.2 °F 65% 30.11 in 10.0 mi ESE 5.8 mph - N/A   Mostly Cloudy
12:35 AM 42.8 °F 38.6 °F 30.2 °F 61% 30.11 in 10.0 mi ESE 6.9 mph - N/A   Overcast
12:55 AM 42.8 °F 39.3 °F 30.2 °F 61% 30.12 in 10.0 mi ESE 5.8 mph - N/A   Mostly Cloudy
1:15 AM 42.8 °F 40.1 °F 30.2 °F 61% 30.11 in 10.0 mi ESE 4.6 mph - N/A   Mostly Cloudy
1:35 AM 42.8 °F - 30.2 °F 61% 30.13 in 10.0 mi Calm Calm - N/A   Overcast
1:55 AM 42.8 °F 39.3 °F 30.2 °F 61% 30.12 in 10.0 mi ESE 5.8 mph - N/A   Overcast
2:15 AM 42.8 °F 40.1 °F 30.2 °F 61% 30.11 in 10.0 mi East 4.6 mph - N/A   Overcast
2:35 AM 41.0 °F 39.0 °F 32.0 °F 70% 30.11 in 10.0 mi East 3.5 mph - N/A   Overcast
2:55 AM 41.0 °F 39.0 °F 32.0 °F 70% 30.10 in 10.0 mi East 3.5 mph - N/A   Overcast
3:15 AM 41.0 °F 37.1 °F 32.0 °F 70% 30.10 in 10.0 mi East 5.8 mph - N/A   Overcast
3:35 AM 41.0 °F 37.1 °F 32.0 °F 70% 30.10 in 10.0 mi East 5.8 mph - N/A   Overcast
3:55 AM 41.0 °F 37.1 °F 32.0 °F 70% 30.09 in 10.0 mi East 5.8 mph - N/A   Overcast
4:15 AM 41.0 °F 37.1 °F 32.0 °F 70% 30.09 in 10.0 mi East 5.8 mph - N/A   Overcast
4:35 AM 41.0 °F 39.0 °F 32.0 °F 70% 30.09 in 10.0 mi ENE 3.5 mph - N/A   Overcast
4:55 AM 41.0 °F 38.0 °F 32.0 °F 70% 30.10 in 10.0 mi East 4.6 mph - N/A   Overcast
5:15 AM 41.0 °F 37.1 °F 32.0 °F 70% 30.10 in 10.0 mi East 5.8 mph - N/A   Overcast
5:35 AM 42.8 °F 39.3 °F 32.0 °F 66% 30.10 in 10.0 mi East 5.8 mph - N/A   Overcast
5:55 AM 42.8 °F 39.3 °F 32.0 °F 66% 30.10 in 10.0 mi East 5.8 mph - N/A   Overcast
6:15 AM 42.8 °F 38.6 °F 32.0 °F 66% 30.10 in 10.0 mi East 6.9 mph - N/A   Overcast
6:35 AM 42.8 °F 38.6 °F 32.0 °F 66% 30.10 in 10.0 mi East 6.9 mph - N/A   Overcast
6:55 AM 42.8 °F 38.6 °F 32.0 °F 66% 30.10 in 10.0 mi ESE 6.9 mph - N/A   Overcast
7:15 AM 42.8 °F 38.6 °F 33.8 °F 70% 30.10 in 10.0 mi East 6.9 mph - N/A   Overcast
7:35 AM 42.8 °F 38.0 °F 33.8 °F 70% 30.09 in 10.0 mi East 8.1 mph - N/A   Overcast
7:55 AM 42.8 °F 38.0 °F 33.8 °F 70% 30.10 in 10.0 mi East 8.1 mph - N/A   Overcast
8:15 AM 42.8 °F 37.5 °F 33.8 °F 70% 30.10 in 10.0 mi East 9.2 mph - N/A   Overcast
8:35 AM 42.8 °F 38.0 °F 33.8 °F 70% 30.10 in 10.0 mi ESE 8.1 mph - N/A   Overcast
8:55 AM 44.6 °F 40.7 °F 33.8 °F 66% 30.11 in 10.0 mi East 6.9 mph - N/A   Overcast
9:15 AM 44.6 °F 40.2 °F 33.8 °F 66% 30.12 in 10.0 mi ESE 8.1 mph - N/A   Overcast
9:35 AM 44.6 °F 41.4 °F 33.8 °F 66% 30.12 in 10.0 mi East 5.8 mph - N/A   Overcast
9:55 AM 46.4 °F 41.9 °F 35.6 °F 66% 30.13 in 10.0 mi ESE 9.2 mph - N/A   Overcast
10:15 AM 46.4 °F 41.1 °F 35.6 °F 66% 30.12 in 10.0 mi ESE 11.5 mph - N/A   Overcast
10:35 AM 46.4 °F 41.9 °F 37.4 °F 71% 30.13 in 10.0 mi ESE 9.2 mph - N/A   Overcast
10:55 AM 46.4 °F 43.5 °F 37.4 °F 71% 30.12 in 10.0 mi ESE 5.8 mph - N/A Rain Light Rain
11:15 AM 46.4 °F 45.2 °F 39.2 °F 76% 30.11 in 10.0 mi SE 3.5 mph - N/A   Overcast
11:55 AM 44.6 °F 43.1 °F 42.8 °F 93% 30.08 in 7.0 mi ENE 3.5 mph - 0.01 in   Overcast
12:15 PM 44.6 °F 43.1 °F 42.8 °F 93% 30.07 in 5.0 mi NE 3.5 mph - N/A Rain Light Rain
12:35 PM 44.6 °F 42.2 °F 42.8 °F 93% 30.07 in 2.5 mi ENE 4.6 mph - 0.01 in   Drizzle
12:55 PM 44.6 °F 40.2 °F 44.6 °F 100% 30.06 in 3.0 mi NE 8.1 mph - 0.03 in   Drizzle
1:15 PM 44.6 °F 40.2 °F 42.8 °F 93% 30.05 in 2.0 mi NNE 8.1 mph - N/A   Light Drizzle
1:55 PM 44.6 °F 40.2 °F 42.8 °F 93% 30.02 in 2.0 mi NE 8.1 mph - 0.05 in Rain Rain
2:15 PM 44.6 °F 40.2 °F 42.8 °F 93% 30.01 in 2.5 mi NE 8.1 mph - 0.02 in Rain Rain
2:35 PM 42.8 °F 38.0 °F 42.8 °F 100% 30.01 in 2.5 mi North 8.1 mph - 0.03 in   Overcast
2:55 PM 42.8 °F 38.0 °F 42.8 °F 100% 30.01 in 2.0 mi NE 8.1 mph - 0.06 in Rain Light Rain
3:15 PM 42.8 °F - 42.8 °F 100% 30.02 in 2.0 mi Calm Calm - 0.01 in Rain Light Rain
3:35 PM 42.8 °F 38.6 °F 42.8 °F 100% 30.02 in 1.8 mi NE 6.9 mph - 0.12 in Rain Heavy Rain
3:55 PM 42.8 °F 38.6 °F 42.8 °F 100% 30.02 in 2.0 mi ENE 6.9 mph - 0.19 in Rain Light Rain
4:15 PM 42.8 °F 39.3 °F 42.8 °F 100% 30.03 in 3.0 mi NE 5.8 mph - 0.01 in   Light Drizzle
4:35 PM 44.6 °F 41.4 °F 42.8 °F 93% 30.03 in 3.0 mi NNE 5.8 mph - 0.02 in Rain Light Rain
4:55 PM 44.6 °F 42.2 °F 42.8 °F 93% 30.03 in 4.0 mi NNE 4.6 mph - 0.04 in Rain Light Rain
5:15 PM 44.6 °F 40.7 °F 42.8 °F 93% 30.04 in 2.0 mi North 6.9 mph - 0.08 in Rain Heavy Rain
5:35 PM 44.6 °F 40.7 °F 44.6 °F 100% 30.04 in 4.0 mi NNE 6.9 mph - 0.19 in Rain Light Rain
5:55 PM 44.6 °F 40.7 °F 44.6 °F 100% 30.05 in 7.0 mi NE 6.9 mph - 0.20 in Rain Rain
6:15 PM 44.6 °F 39.7 °F 44.6 °F 100% 30.03 in 10.0 mi NE 9.2 mph - N/A   Light Drizzle
6:35 PM 44.6 °F 40.2 °F 44.6 °F 100% 30.04 in 7.0 mi NE 8.1 mph - N/A   Overcast
6:55 PM 44.6 °F 40.2 °F 44.6 °F 100% 30.06 in 5.0 mi NNE 8.1 mph - N/A   Overcast
7:15 PM 44.6 °F 40.7 °F 44.6 °F 100% 30.08 in 3.0 mi North 6.9 mph - 0.02 in Rain , Thunderstorm Rain
7:35 PM 44.6 °F 39.7 °F 44.6 °F 100% 30.07 in 2.5 mi NNW 9.2 mph - 0.10 in Rain Rain
7:55 PM 44.6 °F 40.2 °F 44.6 °F 100% 30.05 in 4.0 mi NNE 8.1 mph - 0.13 in Rain Light Rain
8:15 PM 44.6 °F 40.2 °F 44.6 °F 100% 30.06 in 7.0 mi NNE 8.1 mph - N/A   Light Drizzle
8:35 PM 44.6 °F 39.7 °F 44.6 °F 100% 30.06 in 5.0 mi NE 9.2 mph - N/A   Overcast
8:55 PM 44.6 °F 40.2 °F 44.6 °F 100% 30.06 in 5.0 mi NE 8.1 mph - N/A   Overcast
9:15 PM 44.6 °F 41.4 °F 44.6 °F 100% 30.08 in 5.0 mi NNE 5.8 mph - N/A   Light Drizzle
9:35 PM 44.6 °F 40.7 °F 44.6 °F 100% 30.10 in 2.5 mi North 6.9 mph - 0.08 in Rain Heavy Rain
9:55 PM 46.4 °F 44.3 °F 46.4 °F 100% 30.09 in 2.5 mi NE 4.6 mph - 0.19 in Rain Rain
10:15 PM 46.4 °F 44.3 °F 46.4 °F 100% 30.12 in 3.0 mi North 4.6 mph - 0.05 in Rain Heavy Rain
10:35 PM 46.4 °F 39.2 °F 46.4 °F 100% 30.06 in 4.0 mi ESE 18.4 mph - 0.10 in Rain Light Rain
11:55 PM 46.4 °F 42.4 °F 46.4 °F 100% 30.12 in 7.0 mi North 8.1 mph - N/A   Overcast